FW9262 Weather Reports


time (UTC)temp
C
wind
direction
speed
KPH
gust
KPH
rain 1hr
cm
rain 24hr
cm
rain mn
cm
humidity
%
barometer
mb
20260509105414 16 12 0.0 3.2 0.00 0.00 0.00 89 1016.0
20260509104911 16 16 1.6 1.6 0.00 0.00 0.00 90 1016.0
20260509104408 16 11 0.0 0.0 0.00 0.00 0.00 90 1016.0
20260509103905 16 10 0.0 0.0 0.00 0.00 0.00 90 1016.0
20260509103402 16 10 0.0 0.0 0.00 0.00 0.00 90 1016.0
20260509102901 15 12 0.0 0.0 0.00 0.00 0.00 90 1016.0
20260509102358 15 13 0.0 0.0 0.00 0.00 0.00 90 1016.0
20260509101853 15 11 0.0 0.0 0.00 0.00 0.00 90 1016.0
20260509101349 15 12 0.0 0.0 0.00 0.00 0.00 90 1016.0
20260509100848 15 16 0.0 1.6 0.00 0.00 0.00 90 1016.0
20260509100344 15 23 0.0 3.2 0.00 0.00 0.00 90 1016.0
20260509095841 15 11 0.0 0.0 0.00 0.00 0.00 90 1016.0
20260509095339 15 17 0.0 3.2 0.00 0.00 0.00 90 1016.3
20260509094836 15 9 0.0 1.6 0.00 0.00 0.00 90 1016.0
20260509094332 15 12 0.0 0.0 0.00 0.00 0.00 90 1016.0
20260509093830 15 11 0.0 1.6 0.00 0.00 0.00 90 1016.0
20260509093326 15 12 0.0 0.0 0.00 0.00 0.00 90 1016.3
20260509092825 15 9 0.0 1.6 0.00 0.00 0.00 90 1016.3
20260509092323 15 8 0.0 0.0 0.00 0.00 0.00 90 1016.3
20260509091821 15 7 0.0 0.0 0.00 0.00 0.00 90 1016.3
20260509091317 15 7 0.0 0.0 0.00 0.00 0.00 90 1016.3
20260509090815 15 3 0.0 0.0 0.00 0.00 0.00 90 1016.3
20260509090312 15 2 0.0 0.0 0.00 0.00 0.00 91 1016.3
20260509085809 15 3 0.0 0.0 0.00 0.00 0.00 91 1016.3
20260509085307 15 2 0.0 0.0 0.00 0.00 0.00 91 1016.3
20260509084803 15 354 0.0 0.0 0.00 0.00 0.00 91 1016.3
20260509084300 15 338 0.0 0.0 0.00 0.00 0.00 91 1016.6
20260509083757 15 342 0.0 0.0 0.00 0.00 0.00 91 1016.6
20260509083254 15 336 0.0 0.0 0.00 0.00 0.00 91 1016.3
20260509082750 15 334 0.0 0.0 0.00 0.00 0.00 91 1016.6
20260509082247 15 335 0.0 0.0 0.00 0.00 0.00 91 1016.6
20260509081744 15 335 0.0 0.0 0.00 0.00 0.00 91 1016.6
20260509081242 15 332 0.0 0.0 0.00 0.00 0.00 91 1016.6
20260509080740 15 328 0.0 1.6 0.00 0.00 0.00 91 1016.6
20260509080237 15 323 0.0 0.0 0.00 0.00 0.00 91 1017.0
20260509075735 15 330 0.0 1.6 0.00 0.00 0.00 91 1017.0
20260509075232 15 330 0.0 0.0 0.00 0.00 0.00 91 1017.0
20260509074729 15 332 0.0 0.0 0.00 0.00 0.00 91 1016.6
20260509074227 15 330 0.0 0.0 0.00 0.00 0.00 91 1017.0
20260509073723 15 336 0.0 0.0 0.00 0.00 0.00 91 1017.0
20260509073219 15 341 0.0 0.0 0.00 0.00 0.00 91 1017.0
20260509072716 15 345 0.0 0.0 0.00 0.00 0.00 91 1017.0
20260509072213 15 348 0.0 0.0 0.00 0.00 0.00 91 1017.0
20260509071709 15 344 0.0 0.0 0.00 0.00 0.00 91 1017.0
20260509071207 15 338 0.0 0.0 0.00 0.00 0.00 91 1017.3
20260509070704 15 335 0.0 0.0 0.00 0.00 0.00 91 1017.0
20260509070200 15 337 0.0 1.6 0.00 0.00 0.00 91 1017.0
20260509065656 15 321 1.6 1.6 0.00 0.00 0.00 91 1017.3
20260509065152 15 315 0.0 0.0 0.00 0.00 0.00 91 1017.0
20260509064649 15 324 0.0 3.2 0.00 0.00 0.00 91 1017.0
20260509064147 15 302 1.6 1.6 0.00 0.00 0.00 91 1017.0
20260509063644 15 338 0.0 0.0 0.00 0.00 0.00 91 1017.0
20260509063140 15 325 0.0 1.6 0.00 0.00 0.00 91 1017.3
20260509062637 15 297 0.0 0.0 0.00 0.00 0.00 91 1017.0
20260509062135 15 315 1.6 1.6 0.00 0.00 0.00 91 1017.0
20260509061631 15 326 0.0 0.0 0.00 0.00 0.00 91 1017.3
20260509061129 15 335 0.0 0.0 0.00 0.00 0.00 91 1017.0
20260509060626 15 346 0.0 0.0 0.00 0.00 0.00 91 1017.0
20260509060122 15 325 0.0 0.0 0.00 0.00 0.00 91 1017.3
20260509055618 15 341 0.0 0.0 0.00 0.00 0.00 91 1017.3
20260509055114 15 55 0.0 0.0 0.00 0.00 0.00 91 1017.3
20260509054611 15 80 0.0 1.6 0.00 0.00 0.00 91 1017.3
20260509054108 15 259 1.6 3.2 0.00 0.00 0.00 91 1017.3
20260509053607 15 280 1.6 3.2 0.00 0.00 0.00 91 1017.3
20260509053103 15 333 1.6 1.6 0.00 0.00 0.00 91 1017.0
20260509052601 15 262 0.0 1.6 0.00 0.00 0.00 91 1017.3
20260509052059 15 281 1.6 1.6 0.00 0.00 0.00 90 1017.3
20260509051556 15 251 0.0 1.6 0.00 0.00 0.00 90 1017.3
20260509051053 15 314 0.0 0.0 0.00 0.00 0.00 90 1017.0
20260509050550 15 239 1.6 3.2 0.00 0.00 0.00 90 1017.3
20260509050046 15 321 1.6 1.6 0.00 0.00 0.00 90 1017.0
20260509045544 15 333 0.0 1.6 0.00 0.00 0.00 90 1017.3
20260509045041 15 326 0.0 1.6 0.00 0.00 0.00 90 1017.3
20260509044538 15 330 0.0 3.2 0.00 0.00 0.00 90 1017.0
20260509044036 15 251 1.6 3.2 0.00 0.00 0.00 90 1017.3
20260509043532 15 272 0.0 1.6 0.00 0.00 0.00 90 1017.0
20260509043028 15 312 1.6 1.6 0.00 0.00 0.00 90 1017.0
20260509042524 15 327 0.0 1.6 0.00 0.00 0.00 89 1017.0
20260509042020 15 278 1.6 4.8 0.00 0.00 0.00 89 1017.0
20260509041517 15 163 1.6 1.6 0.00 0.00 0.00 89 1017.0
20260509041015 15 275 1.6 3.2 0.00 0.00 0.00 89 1017.0
20260509040513 15 332 0.0 1.6 0.00 0.00 0.00 89 1017.0
20260509040010 15 235 3.2 3.2 0.00 0.00 0.00 88 1017.0
20260509035507 15 299 1.6 3.2 0.00 0.00 0.00 89 1017.0
20260509035003 16 299 1.6 3.2 0.00 0.00 0.00 88 1017.0
20260509034502 16 319 0.0 1.6 0.00 0.00 0.00 89 1016.6
20260509033958 16 286 1.6 3.2 0.00 0.00 0.00 89 1016.6
20260509033454 15 325 1.6 3.2 0.00 0.00 0.00 89 1016.6
20260509032951 16 232 1.6 3.2 0.00 0.00 0.00 89 1016.6
20260509032449 15 334 1.6 3.2 0.00 0.00 0.00 89 1016.6
20260509031946 16 336 0.0 4.8 0.00 0.00 0.00 88 1016.3
20260509031443 16 342 0.0 1.6 0.00 0.00 0.00 88 1016.3
20260509030941 16 160 0.0 4.8 0.00 0.00 0.00 88 1016.3
20260509030439 16 343 0.0 1.6 0.00 0.00 0.00 88 1016.0
20260509025935 16 237 1.6 3.2 0.00 0.00 0.00 88 1016.0
20260509025431 16 331 1.6 1.6 0.00 0.00 0.00 88 1016.3
20260509024926 16 250 3.2 6.4 0.00 0.00 0.00 88 1016.3
20260509024423 16 340 0.0 0.0 0.00 0.00 0.00 88 1016.3
20260509023920 16 330 3.2 6.4 0.00 0.00 0.00 87 1016.3
20260509023417 16 256 3.2 4.8 0.00 0.00 0.00 87 1016.0
20260509022914 16 250 1.6 3.2 0.00 0.00 0.00 87 1016.0
20260509022411 16 326 1.6 4.8 0.00 0.00 0.00 87 1016.0
20260509021908 16 201 3.2 4.8 0.00 0.00 0.00 87 1016.0
20260509021405 16 278 0.0 6.4 0.00 0.00 0.00 87 1016.0
20260509020902 16 293 3.2 3.2 0.00 0.00 0.00 87 1016.0
20260509020401 16 322 1.6 4.8 0.00 0.00 0.00 87 1016.0
20260509015857 16 325 0.0 1.6 0.00 0.00 0.00 87 1016.0
20260509015356 16 280 4.8 9.7 0.00 0.00 0.00 86 1016.0
20260509014852 16 323 1.6 4.8 0.00 0.00 0.00 86 1016.0
20260509014349 16 333 1.6 4.8 0.00 0.00 0.00 86 1016.0
20260509013845 16 301 1.6 6.4 0.00 0.00 0.00 86 1016.0
20260509013342 16 348 3.2 6.4 0.00 0.00 0.00 85 1016.0
20260509012838 17 228 3.2 4.8 0.00 0.00 0.00 85 1016.0
20260509012335 17 301 1.6 6.4 0.00 0.00 0.00 85 1016.0
20260509011832 17 241 3.2 6.4 0.00 0.00 0.00 85 1016.0
20260509011330 17 265 4.8 9.7 0.00 0.00 0.00 85 1016.0
20260509010827 17 270 4.8 6.4 0.00 0.00 0.00 85 1016.0
20260509010325 17 227 3.2 4.8 0.00 0.00 0.00 84 1016.3
20260509005821 17 232 4.8 9.7 0.00 0.00 0.00 83 1016.0
20260509005319 17 257 4.8 9.7 0.00 0.00 0.00 83 1016.0
20260509004814 17 310 1.6 6.4 0.00 0.00 0.00 84 1016.0
20260509004310 17 297 3.2 6.4 0.00 0.00 0.00 83 1016.0
20260509003808 17 290 3.2 9.7 0.00 0.00 0.00 83 1016.0
20260509003306 17 211 4.8 12.9 0.00 0.00 0.00 83 1016.0
20260509002803 17 299 3.2 12.9 0.00 0.00 0.00 83 1016.0
20260509002301 17 305 4.8 11.3 0.00 0.00 0.00 82 1016.0
20260509001758 17 234 4.8 11.3 0.00 0.00 0.00 82 1016.0
20260509001254 17 219 8.0 11.3 0.00 0.00 0.00 82 1016.0
20260509000751 17 242 6.4 9.7 0.00 0.00 0.00 82 1016.0
20260509000248 18 316 3.2 9.7 0.00 0.00 0.00 82 1016.0
20260508235745 18 296 3.2 9.7 0.00 0.00 0.00 81 1016.0
20260508235242 18 208 6.4 11.3 0.00 0.00 0.00 81 1016.0
20260508234739 18 253 3.2 11.3 0.00 0.00 0.00 82 1016.0
20260508234235 18 249 4.8 9.7 0.00 0.00 0.00 80 1016.0
20260508233729 18 226 6.4 9.7 0.00 0.00 0.00 79 1016.3
20260508233227 18 211 4.8 9.7 0.00 0.00 0.00 79 1015.6
20260508232724 18 240 3.2 6.4 0.00 0.00 0.00 80 1016.0
20260508232220 18 255 6.4 9.7 0.00 0.00 0.00 78 1016.0
20260508231718 19 336 1.6 3.2 0.00 0.00 0.00 77 1016.3
20260508231215 20 272 4.8 6.4 0.00 0.00 0.00 76 1016.3
20260508230712 19 340 1.6 9.7 0.00 0.00 0.00 78 1016.3
20260508230208 20 257 4.8 11.3 0.00 0.00 0.00 75 1016.3
20260508225706 19 200 3.2 11.3 0.00 0.00 0.00 77 1016.6
20260508225202 20 281 9.7 12.9 0.00 0.00 0.00 74 1016.6
20260508224700 20 338 3.2 11.3 0.00 0.00 0.00 74 1016.3
20260508224157 20 324 3.2 4.8 0.00 0.00 0.00 74 1016.6
20260508223655 20 268 4.8 6.4 0.00 0.00 0.00 73 1017.0
20260508223152 20 332 3.2 9.7 0.00 0.00 0.00 73 1016.6
20260508222649 20 326 1.6 9.7 0.00 0.00 0.00 72 1016.6
20260508222147 20 318 4.8 11.3 0.00 0.00 0.00 73 1016.6
20260508221642 21 19 6.4 6.4 0.00 0.00 0.00 70 1017.0
20260508221138 21 328 1.6 4.8 0.00 0.00 0.00 69 1016.6
20260508220635 21 329 1.6 6.4 0.00 0.00 0.00 71 1017.0
20260508220132 21 322 3.2 9.7 0.00 0.00 0.00 71 1017.0
20260508215628 20 243 3.2 9.7 0.00 0.00 0.00 73 1017.0
20260508215125 21 271 4.8 11.3 0.00 0.00 0.00 71 1017.0
20260508214622 21 276 6.4 11.3 0.00 0.00 0.00 69 1017.3
20260508214119 20 306 4.8 6.4 0.00 0.00 0.00 72 1017.3
20260508213616 21 301 1.6 9.7 0.00 0.00 0.00 72 1017.3
20260508213112 21 317 1.6 3.2 0.00 0.00 0.00 71 1017.3
20260508212609 21 247 4.8 9.7 0.00 0.00 0.00 71 1017.3
20260508212105 21 238 6.4 9.7 0.00 0.00 0.00 71 1017.3
20260508211600 22 244 4.8 4.8 0.00 0.00 0.00 68 1017.3
20260508211057 22 344 0.0 4.8 0.00 0.00 0.00 69 1017.3
20260508210554 21 313 3.2 4.8 0.00 0.00 0.00 70 1017.6
20260508210051 21 299 3.2 9.7 0.00 0.00 0.00 69 1017.6
20260508205548 21 334 1.6 6.4 0.00 0.00 0.00 72 1017.6
20260508205044 21 309 8.0 12.9 0.00 0.00 0.00 71 1017.6
20260508204541 21 298 4.8 11.3 0.00 0.00 0.00 71 1017.6
20260508204037 20 326 1.6 11.3 0.00 0.00 0.00 75 1017.6
20260508203533 20 294 3.2 6.4 0.00 0.00 0.00 74 1018.0
20260508203029 20 340 4.8 6.4 0.00 0.00 0.00 73 1017.6
20260508202526 20 270 6.4 11.3 0.00 0.00 0.00 75 1018.0
20260508202023 20 323 3.2 11.3 0.00 0.00 0.00 73 1018.0
20260508201520 20 238 3.2 6.4 0.00 0.00 0.00 74 1018.0
20260508201016 20 221 6.4 11.3 0.00 0.00 0.00 74 1018.0
20260508200514 20 215 3.2 9.7 0.00 0.00 0.00 74 1018.0
20260508200009 20 269 4.8 6.4 0.00 0.00 0.00 74 1018.0
20260508195506 21 227 6.4 12.9 0.00 0.00 0.00 72 1018.3
20260508195003 20 267 6.4 12.9 0.00 0.00 0.00 75 1018.3
20260508194500 20 284 4.8 11.3 0.00 0.00 0.00 74 1018.3
20260508193957 20 276 4.8 9.7 0.00 0.00 0.00 75 1018.0
20260508193453 20 212 3.2 9.7 0.00 0.00 0.00 74 1018.3
20260508192949 20 240 3.2 6.4 0.00 0.00 0.00 73 1018.3
20260508192446 20 358 3.2 4.8 0.00 0.00 0.00 74 1018.3
20260508191943 20 279 4.8 6.4 0.00 0.00 0.00 75 1018.3
20260508191441 20 300 1.6 4.8 0.00 0.00 0.00 77 1018.7
20260508190937 19 191 4.8 6.4 0.00 0.00 0.00 77 1018.7
20260508190435 19 307 3.2 4.8 0.00 0.00 0.00 77 1018.7
20260508185931 18 237 3.2 9.7 0.00 0.00 0.00 79 1018.7
20260508185428 18 291 3.2 4.8 0.00 0.00 0.00 79 1018.7
20260508184925 18 258 4.8 6.4 0.00 0.00 0.00 79 1018.7
20260508184423 18 227 3.2 6.4 0.00 0.00 0.00 81 1018.7
20260508183919 18 258 4.8 9.7 0.00 0.00 0.00 79 1018.7
20260508183416 18 187 1.6 4.8 0.00 0.00 0.00 81 1019.0
20260508182911 18 212 3.2 6.4 0.00 0.00 0.00 81 1019.0
20260508182409 18 273 4.8 9.7 0.00 0.00 0.00 81 1018.7
20260508181904 18 260 4.8 11.3 0.00 0.00 0.00 81 1018.7
20260508181401 18 189 3.2 9.7 0.00 0.00 0.00 81 1018.7
20260508180858 18 266 3.2 4.8 0.00 0.00 0.00 80 1018.7
20260508180355 18 308 1.6 4.8 0.00 0.00 0.00 81 1019.0
20260508175850 18 324 1.6 6.4 0.00 0.00 0.00 81 1019.0
20260508175348 18 332 1.6 4.8 0.00 0.00 0.00 81 1019.0
20260508174846 18 252 1.6 4.8 0.00 0.00 0.00 81 1018.7
20260508174343 18 325 1.6 3.2 0.00 0.00 0.00 81 1019.0
20260508173839 18 314 1.6 3.2 0.00 0.00 0.00 80 1019.0
20260508173336 18 249 1.6 3.2 0.00 0.00 0.00 81 1019.0
20260508172832 18 205 4.8 4.8 0.00 0.00 0.00 80 1019.0
20260508172330 18 101 3.2 3.2 0.00 0.00 0.00 78 1019.0
20260508171826 18 346 0.0 1.6 0.00 0.00 0.00 79 1019.3
20260508171322 18 13 0.0 1.6 0.00 0.00 0.00 79 1019.3
20260508170819 18 337 0.0 0.0 0.00 0.00 0.00 79 1019.0
20260508170318 18 322 3.2 3.2 0.00 0.00 0.00 79 1019.3
20260508165814 18 358 0.0 0.0 0.00 0.00 0.00 79 1019.3
20260508165311 18 345 0.0 0.0 0.00 0.00 0.00 79 1019.0
20260508164807 18 348 0.0 0.0 0.00 0.00 0.00 81 1019.0
20260508164304 17 339 0.0 0.0 0.00 0.00 0.00 81 1019.0
20260508163802 17 6 1.6 3.2 0.00 0.00 0.00 81 1019.0
20260508163259 17 351 0.0 3.2 0.00 0.00 0.00 81 1019.0
20260508162755 17 350 0.0 1.6 0.00 0.00 0.00 82 1018.7
20260508162252 17 17 1.6 3.2 0.00 0.00 0.00 81 1019.0
20260508161749 17 352 0.0 0.0 0.00 0.00 0.00 82 1018.7
20260508161246 17 352 0.0 0.0 0.00 0.00 0.00 82 1019.0
20260508160744 17 345 0.0 0.0 0.00 0.00 0.00 83 1018.7
20260508160242 17 26 1.6 4.8 0.00 0.00 0.00 83 1019.0
20260508155738 17 347 0.0 1.6 0.00 0.00 0.00 83 1019.0
20260508155235 17 339 0.0 0.0 0.00 0.00 0.00 83 1019.0
20260508154732 17 354 0.0 0.0 0.00 0.00 0.00 83 1019.0
20260508154230 17 352 0.0 0.0 0.00 0.00 0.00 83 1019.0
20260508153726 16 10 0.0 0.0 0.00 0.00 0.00 84 1019.0
20260508153223 16 22 0.0 1.6 0.00 0.00 0.00 84 1018.7
20260508152720 16 49 1.6 3.2 0.00 0.00 0.00 84 1019.0
20260508152215 16 354 1.6 4.8 0.00 0.00 0.00 84 1019.3
20260508151712 16 342 0.0 1.6 0.00 0.00 0.00 85 1019.0
20260508151209 16 349 0.0 1.6 0.00 0.00 0.00 85 1019.0
20260508150706 16 8 4.8 6.4 0.00 0.00 0.00 85 1019.0
20260508150202 16 352 0.0 6.4 0.00 0.00 0.00 85 1019.0
20260508145658 16 76 0.0 1.6 0.00 0.00 0.00 85 1019.0
20260508145154 16 14 0.0 3.2 0.00 0.00 0.00 85 1018.7
20260508144652 16 354 1.6 4.8 0.00 0.00 0.00 85 1019.0
20260508144149 16 61 1.6 4.8 0.00 0.00 0.00 86 1018.7
20260508143647 16 74 1.6 3.2 0.00 0.00 0.00 86 1019.3
20260508143144 16 352 1.6 4.8 0.00 0.00 0.00 86 1019.0
20260508142640 16 348 0.0 1.6 0.00 0.00 0.00 86 1019.0
20260508142137 16 1 0.0 3.2 0.00 0.00 0.00 86 1019.3
20260508141633 16 353 0.0 3.2 0.00 0.00 0.00 86 1019.0
20260508141131 16 56 0.0 1.6 0.00 0.00 0.00 86 1019.0
20260508140628 16 352 0.0 1.6 0.00 0.00 0.00 86 1019.0
20260508140125 16 350 0.0 0.0 0.00 0.00 0.00 86 1019.0
20260508135620 16 349 0.0 0.0 0.00 0.00 0.00 87 1019.0
20260508135116 16 26 0.0 1.6 0.00 0.00 0.00 86 1018.7
20260508134614 16 18 0.0 1.6 0.00 0.00 0.00 86 1019.0
20260508134111 16 340 0.0 1.6 0.00 0.00 0.00 86 1019.0
20260508133607 16 330 0.0 1.6 0.00 0.00 0.00 86 1018.7
20260508133105 16 60 1.6 3.2 0.00 0.00 0.00 86 1018.7
20260508132603 16 53 1.6 1.6 0.00 0.00 0.00 86 1018.7
20260508132059 16 24 0.0 0.0 0.00 0.00 0.00 86 1018.7
20260508131555 16 74 1.6 3.2 0.00 0.00 0.00 86 1018.7
20260508131052 16 2 0.0 4.8 0.00 0.00 0.00 86 1018.7
20260508130548 16 22 0.0 3.2 0.00 0.00 0.00 86 1018.7
20260508130045 16 351 0.0 0.0 0.00 0.00 0.00 86 1018.7
20260508125540 16 357 0.0 1.6 0.00 0.00 0.00 86 1018.7
20260508125038 16 358 0.0 1.6 0.00 0.00 0.00 86 1018.3
20260508124536 16 75 1.6 3.2 0.00 0.00 0.00 86 1018.0
20260508124033 16 359 0.0 0.0 0.00 0.00 0.00 86 1018.3
20260508123532 16 73 1.6 3.2 0.00 0.00 0.00 86 1018.3
20260508123028 16 77 0.0 1.6 0.00 0.00 0.00 86 1018.3
20260508122525 16 357 0.0 0.0 0.00 0.00 0.00 87 1018.3
20260508122022 16 358 0.0 0.0 0.00 0.00 0.00 87 1018.0
20260508121520 16 43 0.0 1.6 0.00 0.00 0.00 86 1018.3
20260508121018 16 36 3.2 4.8 0.00 0.00 0.00 86 1018.0
20260508120515 16 1 0.0 1.6 0.00 0.00 0.00 86 1018.0
20260508120013 16 4 1.6 3.2 0.00 0.00 0.00 87 1018.3
20260508115510 16 10 1.6 3.2 0.00 0.00 0.00 87 1018.3
20260508115006 16 1 0.0 3.2 0.00 0.00 0.00 87 1018.0
20260508114504 16 49 1.6 4.8 0.00 0.00 0.00 87 1018.0
20260508114000 16 27 0.0 0.0 0.00 0.00 0.00 87 1018.0
20260508113458 16 16 0.0 1.6 0.00 0.00 0.00 87 1018.3
20260508112955 16 0 0.0 3.2 0.00 0.00 0.00 87 1018.0
20260508112451 16 20 3.2 4.8 0.00 0.00 0.00 87 1018.0
20260508111948 16 0 0.0 1.6 0.00 0.00 0.00 88 1018.0
20260508111445 16 27 1.6 3.2 0.00 0.00 0.00 88 1017.6
20260508110942 16 6 0.0 1.6 0.00 0.00 0.00 88 1017.6
20260508110440 16 354 0.0 0.0 0.00 0.00 0.00 88 1018.0
20260508105939 16 348 0.0 0.0 0.00 0.00 0.00 88 1018.0